Flag for Montenegro Weather past 2 weeks in Nikšić, Montenegro

Now
38 °F

Rain. Overcast.


Feels Like: 38 °F
Forecast: 31 / 40 °F
Wind: 2 mph from Northeast

Location: Niksic

Current Time: Mar 5, 2015 at 4:20:44 AM

Latest Report: Mar 5, 2015 at 1:00 AM


Visibility: 9 mi

Pressure: 30.04 "Hg

Humidity: 100%

Dew point: 38 °F

Location of NikšićLocation

Historic Weather in Nikšić — Graph

°F

Nikšić temperature yesterday

Maximum temperature yesterday: 51 °F (at 12:00 PM)
Minimum temperature yesterday: 29 °F (at 7:00 AM)
Average temperature yesterday: 43 °F

Past Weeks' High & Low Weather Summary

 TemperatureHumidityPressure
High56 °F (Feb 20, 2:00 PM)100% (Feb 21, 9:00 PM)30.61 "Hg (Feb 21, 9:00 PM)
Low25 °F (Feb 19, 6:00 AM)14% (Feb 20, 1:00 PM)29.61 "Hg (Feb 25, 1:00 PM)
Average42 °F78%30.03 "Hg
* Reported Feb 18 1:00 AM — Mar 5 1:00 AM, Nikšić, Weather by CustomWeather, © 2015

Note: Actual official high and low records may vary slightly from our data, if they occured in-between our weather recording intervals... More about our weather records

Advertising

Nikšić weather history for previous 24 hours

 ConditionsComfort  
Time TempWeatherWind HumidityBarometerVisibility
1:00 AM
Thu, Mar 5
38 °FRain. Overcast.2 mph100%30.04 "Hg9 mi
10:00 PM
Wed, Mar 4
41 °FLight rain. Overcast.2 mph100%30.13 "Hg12 mi
9:00 PM44 °FOvercast.3 mph68%30.11 "Hg12 mi
8:00 PM46 °FOvercast.1 mph47%30.11 "Hg12 mi
7:00 PM47 °FOvercast.1 mph40%30.12 "Hg12 mi
6:00 PM47 °FOvercast.2 mph35%30.12 "Hg12 mi
5:00 PM48 °FOvercast.3 mph35%30.12 "Hg12 mi
4:00 PM49 °FOvercast.5 mph33%30.13 "Hg12 mi
3:00 PM50 °FOvercast.6 mph34%30.14 "Hg12 mi
2:00 PM51 °FOvercast.6 mph35%30.16 "Hg12 mi
1:00 PM51 °FPartly sunny.6 mph33%30.18 "Hg12 mi
12:00 PM51 °FPartly sunny.6 mph33%30.21 "Hg12 mi
11:00 AM49 °FPartly sunny.2 mph36%30.24 "Hg12 mi
10:00 AM47 °FScattered clouds.2 mph41%30.26 "Hg12 mi
9:00 AM41 °FPassing clouds.2 mph46%30.31 "Hg12 mi
8:00 AM36 °FPassing clouds.2 mph57%30.35 "Hg12 mi
7:00 AM29 °FSunny.1 mph98%30.39 "Hg12 mi
6:00 AM30 °FClear.2 mph92%30.37 "Hg12 mi
5:00 AM30 °FClear.1 mph100%30.37 "Hg12 mi
Weather by CustomWeather, © 2015

See weather overviewHow to use our weather pages